Location: Maccacari
(45.1333°N, 11.1333°E)
Time: 01:44:50
(UTC+00:00)

A-11 Canister half - Pass Details

Date: 28 January 2021
Orbit: 1525 x 1684 km, 47.3° (Epoch: 07 March)

Event Time Altitude Azimuth Distance (km) Brightness Sun altitude
Rises 21:21:12 0° 284° (WNW) 4,801 12.1 -52.1°
Reaches altitude 10° 21:27:45 10° 252° (WSW) 3,853 11.3 -53.0°
Enters shadow 21:29:45 11° 240° (WSW) 3,785 11.1 -53.3°
Maximum altitude 21:30:01 11° 239° (WSW) 3,785 - -53.3°
Drops below altitude 10° 21:32:19 10° 225° (SW) 3,877 - -53.6°
Sets 21:39:03 0° 193° (SSW) 4,893 - -54.5°
